This is the latest recevied weather packets stored in our database for station/object AA0PB. If no packets are shown the sender has not sent any weather packets the latest 10 day(s).
| Time | Temp. | Humidity | Pressure | Rain* | Wind** | Luminosity | Snow |
|---|---|---|---|---|---|---|---|
| 1777257042 | 18.89° C | 37% | 1011.4 hPa | 0 mm | - | 37 W/m² | - |
| 1777256738 | 18.89° C | 35% | 1011.3 hPa | 0 mm | - | 49 W/m² | - |
| 1777256434 | 18.89° C | 35% | 1011.3 hPa | 0 mm | - | 60 W/m² | - |
| 1777256130 | 19.44° C | 35% | 1010.8 hPa | 0 mm | - | 72 W/m² | - |
| 1777255827 | 19.44° C | 34% | 1011.1 hPa | 0 mm | - | 85 W/m² | - |
| 1777255522 | 20° C | 32% | 1011 hPa | 0 mm | - | 94 W/m² | - |
| 1777255219 | 20° C | 31% | 1010.8 hPa | 0 mm | - | 101 W/m² | - |
| 1777254915 | 20° C | 32% | 1011 hPa | 0 mm | - | 108 W/m² | - |
| 1777254613 | 20° C | 31% | 1010.8 hPa | 0 mm | - | 121 W/m² | - |
| 1777254309 | 20° C | 31% | 1010.8 hPa | 0 mm | - | 137 W/m² | - |
| 1777254004 | 20.56° C | 31% | 1010.6 hPa | 0 mm | - | 116 W/m² | - |
| 1777253702 | 20.56° C | 33% | 1010.7 hPa | 0 mm | - | 156 W/m² | - |
| 1777253398 | 20.56° C | 33% | 1010.7 hPa | 0 mm | - | 174 W/m² | - |
| 1777253096 | 20.56° C | 34% | 1010.4 hPa | 0 mm | - | 199 W/m² | - |
| 1777252794 | 20° C | 48% | 1010.5 hPa | 0 mm | - | 223 W/m² | - |
| 1777252491 | 19.44° C | 50% | 1010.6 hPa | 0 mm | - | 224 W/m² | - |
| 1777252188 | 19.44° C | 50% | 1010.5 hPa | 0 mm | - | 93 W/m² | - |
| 1777251885 | 18.89° C | 52% | 1010.6 hPa | 0 mm | - | 224 W/m² | - |
| 1777251582 | 18.89° C | 52% | 1010.6 hPa | 0 mm | - | 79 W/m² | - |
| 1777251279 | 18.89° C | 52% | 1010.6 hPa | 0 mm | - | 78 W/m² | - |
| 1777250975 | 18.89° C | 51% | 1010.5 hPa | 0 mm | - | 73 W/m² | - |
| 1777250671 | 18.89° C | 51% | 1010.3 hPa | 0 mm | - | 78 W/m² | - |
| 1777250368 | 18.89° C | 49% | 1010.4 hPa | 0 mm | - | 86 W/m² | - |
| 1777250062 | 19.44° C | 49% | 1010.2 hPa | 0 mm | - | 86 W/m² | - |
| 1777249759 | 19.44° C | 48% | 1010.1 hPa | 0 mm | - | 86 W/m² | - |
* Rain latest hour (hover to see other rain measurements)
** Current wind speed in m/s (hover to see current wind gust speed)